KUIPER-00089

导读 | 豆包AI

KUIPER-00089是美国亚马逊“柯伊伯计划”卫星星座中的一颗卫星,于2025年7月16日发射升空。“柯伊伯计划”旨在构建大规模低轨卫星星座,通过太空传输互联网信号,对标SpaceX星链系统,为全球提供宽带互联网接入服务。KUIPER-00089是该星座组网进程中的一颗卫星,助力亚马逊完成近千颗卫星的太空互联网布局,参与全球卫星互联网赛道竞争。

基本信息
目录编号:
64834
目录名称:
KUIPER-00089
国际标识:
2025-151U
轨道中心:
EARTH
卫星名称:
KUIPER-00089
卫星全名:
KUIPER-00089
卫星状态:
在轨 (已飞行241 天)
发射日期:
2025-07-16 UTC
国别 :
美国 (US)
星等 :
--
轨道信息
数据来源 国际轨道数据 AOE轨道数据
星历时间 2026-03-13T22:11:14+0800
11小时前
查看轨道信息
2026-03-11T16:00:00+0800
2天前
查看轨道信息
半长轴 7008.339km 7008.064km
偏心率 0.0001012 0.0000673
轨道倾角 51.900° 51.900°
近地点辐角 90.716° 65.631°
升交点赤经 268.332° 278.317°
平近点角 269.392° 139.608°
近地点 629.492km 629.455km
远地点 630.912km 630.399km
周期 97.316分钟 97.310分钟
每日圈数 14.797221 14.798091
详细信息
使用方式:
暂无
2D轨道图
3D轨道图
轨道高度分析图
轨道倾角分析图
轨道综合分析图
查看轨道综合分析图